Regional Weather Roundup
Issued by NWS Sterling, VA

Home | Current Version | Previous Version | Graphics & Text | Print | Product List | Glossary On
Versions: 1 2 3 4 5 6 7 8 9 10 11 12 13 14 15 16 17 18 19 20 21 22 23 24 25 26 27
000
ASUS41 KLWX 230810
RWRLWX

REGIONAL WEATHER ROUNDUP
NATIONAL WEATHER SERVICE BALTIMORE MD/WASHINGTON DC
400 AM EDT THU OCT 23 2014

Note: "FAIR" indicates few or no clouds below 12,000 feet
with no significant weather and/or obstructions to visibility.
 TC=TEMPERATURE CELSIUS

 * =Non NWS site. Station does not report precipitation (e.g. rain,
    snow, etc.), thunder, or fog.

DCZ001-MDZ009-015-VAZ040>042-051-053>054-230900-
WASHINGTON METRO

CITY           SKY/WX    TMP DP  RH WIND       PRES   REMARKS
WASHINGTON NAT CLOUDY    54  41  61 NW13G25   29.88F
DULLES         MOCLDY    50  41  71 NW16G26   29.90F
ANDREWS AFB    CLOUDY    51  42  71 NW16G28   29.86F
FT BELVOIR     MOCLDY    52  42  68 NW14G26   29.89F
QUANTICO       PTCLDY    52  41  66 NW17G26   29.90F
COLLEGE PARK*  CLOUDY    52  43  71 NW7       29.87S
LEESBURG*      CLOUDY    52  45  76 NW22G32   29.91S
MANASSAS*      PTCLDY    52  43  71 NW21G26   29.90F
GAITHERSBURG*  CLOUDY    50  41  71 NW12G18   29.91S

$$

MDZ006>007-011-014-230900-
BALTIMORE METRO

CITY           SKY/WX    TMP DP  RH WIND       PRES   REMARKS
BWI AIRPORT    CLOUDY    52  42  69 NW12G20   29.85S
MD SCIENCE CTR   N/A     54  43  66 MISG      29.85S
MARTIN STATE   CLOUDY    54  46  76 W15G22    29.84F
ANNAPOLIS      CLOUDY    54  44  69 NW15G23   29.83F
FORT MEADE*    CLOUDY    52  43  71 NW10G21   29.88S

$$

MDZ012-015-019>023-230900-
MARYLAND EASTERN SHORE

CITY           SKY/WX    TMP DP  RH WIND       PRES   REMARKS
OCEAN CITY     LGT RAIN  50  48  93 NW13G18   29.75S
SALISBURY      LGT RAIN  53  48  83 NW14      29.78S
BAY BRIDGE AP*   N/A     54  43  66 NW17G26   29.82F
CAMBRIDGE*     CLOUDY    54  45  71 NW18G26   29.80F VSB<1/4
EASTON*        MOCLDY    55  48  77 N14G22    29.84F

$$

MDZ017>025-230900-
SOUTHERN MARYLAND

CITY           SKY/WX    TMP DP  RH WIND       PRES   REMARKS
PATUXENT RIVER CLOUDY    53  43  68 NW17G28   29.83F
ST INIGOES     CLOUDY    53  42  66 NW14G24   29.84F
LEONARDTOWN*   CLOUDY    52  41  66 NW10G24   29.86S

$$

MDZ003>005-230900-
NORTH CENTRAL MARYLAND

CITY           SKY/WX    TMP DP  RH WIND       PRES   REMARKS
FREDERICK*     CLOUDY    55  41  58 NW13G21   29.93R
HAGERSTOWN APT CLOUDY    50  41  71 NW15      29.93F
WESTMINSTER*   CLOUDY    52  45  76 NW9G21    29.86F

$$

MDZ501>502-230900-
WESTERN MARYLAND

CITY           SKY/WX    TMP DP  RH WIND       PRES   REMARKS
OAKLAND*       FOG       37 N/A N/A NW8G17    30.04F VSB<1/4
CUMBERLAND*    CLOUDY    50  41  71 NW9G18    30.06F

$$

VAZ025>031-230900-
SHENANDOAH VALLEY

CITY           SKY/WX    TMP DP  RH WIND       PRES   REMARKS
WINCHESTER*    CLOUDY    50  37  62 NW15      29.96F
FRONT ROYAL*   CLOUDY    50  41  71 NW9G16    29.96F
LURAY*         CLOUDY    52  43  71 SW6       29.98F
NEW MARKET*    PTSUNNY   49  39  68 CALM      29.99F
STAUNTON*      CLEAR     47  38  70 NW6       30.01F
WAYNESBORO*    FAIR      44  37  75 W6        29.99F

$$

WVZ021-048>050-054>055-230900-
EASTERN WEST VIRGINIA PANHANDLE

CITY           SKY/WX    TMP DP  RH WIND       PRES   REMARKS
MARTINSBURG    CLOUDY    51  39  63 NW14G20   29.96F
PETERSBURG*    MOCLDY    50  38  65 CALM      30.05F

$$

VAZ036>039-050-230900-
CENTRAL FOOTHILLS

CITY           SKY/WX    TMP DP  RH WIND       PRES   REMARKS
CHARLOTTESVILL CLEAR     52  39  61 NW8G17    29.93F
CULPEPER*      CLEAR     54  43  66 NW6       29.92F
ORANGE*        CLEAR     50  41  71 CALM      29.93F
GORDONSVILLE*  FAIR      51  39  64 W6        29.92S
WARRENTON*     FAIR      51  46  82 NW10G17   29.91F

$$

VAZ055>057-230900-
NORTH AND CENTRAL PIEDMONT

CITY           SKY/WX    TMP DP  RH WIND       PRES   REMARKS
FREDERICKSBRG* MOCLDY    53  43  69 NW14      29.90F
STAFFORD*      CLOUDY    51  41  68 NW12      29.94F

$$

NCZ024-NYZ072-PAZ021-071-VAZ022-071-230900-
OTHER REGIONAL OBSERVATIONS

CITY           SKY/WX    TMP DP  RH WIND       PRES   REMARKS
NEW YORK CITY  LGT RAIN  52  46  80 NE8G21    29.73F
PHILADELPHIA   CLOUDY    53  45  74 NW16G29   29.75F
PITTSBURGH     PTCLDY    43  40  89 NW8       30.13S
ROANOKE        PTCLDY    48  38  68 NW10      30.08F
RICHMOND       CLEAR     49  42  77 NW7       29.91F
RALEIGH        CLEAR     45  40  82 CALM      30.01F

$$

ANZ530>537-230900-
MARINE OBSERVATIONS

STATION/POSITION TIME  TEMP    WIND        PRES
                       AIR SEA DIR/SP/G
                 (UTC) (F)     (DEG/KT/KT) (MB)
THOMAS PT LIGHT  0800   53 62  320/ 20/ 24 1010.8F
BALT KEY BRIDGE  0800   55     300/ 21/ 24 1009.9S
COVE POINT       0800   53     330/ 16/ 22 1009.7S
LEWISETTA        0800   55 60  320/ 18/ 22 1010.4S
SOLOMONS ISLAND  0800      64                N/A
PINEY POINT      0800          340/ 27/ 31   N/A

$$




USA.gov is the U.S. government's official web portal to all federal, state and local government web resources and services.